Overview Statistics Trail Chart Weather Telemetry Raw packets
 

This is the latest recevied weather packets stored in our database for station/object KD4EG. If no packets are shown the sender has not sent any weather packets the latest 10 day(s).

<< 39 40 41 42 43 44 45 >>
Time Temp. Humidity Pressure Rain* Wind** Luminosity Snow
1788382701 36.67° C 45% 1019.5 hPa 0 mm - 386 W/m² -
1788382396 36.67° C 44% 1019.4 hPa 0 mm - 393 W/m² -
1788382092 36.67° C 46% 1019.8 hPa 0 mm - 414 W/m² -
1788381787 36.67° C 44% 1019.7 hPa 0 mm - 465 W/m² -
1788381482 36.11° C 45% 1019.7 hPa 0 mm - 483 W/m² -
1788381177 35.56° C 47% 1019.7 hPa 0 mm - 499 W/m² -
1788380871 36.11° C 46% 1019.7 hPa 0 mm - 242 W/m² -
1788380568 37.22° C 45% 1019.7 hPa 0 mm - 505 W/m² -
1788380264 36.67° C 45% 1019.8 hPa 0 mm - 506 W/m² -
1788379964 36.67° C 45% 1019.8 hPa 0 mm - 521 W/m² -
1788379659 36.11° C 46% 1020 hPa 0 mm - 503 W/m² -
1788379354 35.56° C 47% 1020.2 hPa 0 mm - 434 W/m² -
1788379050 35° C 48% 1020.1 hPa 0 mm - 170 W/m² -
1788378749 35° C 49% 1020.1 hPa 0 mm - 177 W/m² -
1788378449 35° C 48% 1020.3 hPa 0 mm - 170 W/m² -
1788378144 35° C 48% 1020.2 hPa 0 mm - 170 W/m² -
1788377839 35.56° C 49% 1020.2 hPa 0 mm - 173 W/m² -
1788377535 35.56° C 48% 1020.3 hPa 0 mm - 645 W/m² -
1788377233 35° C 48% 1020.5 hPa 0 mm - 198 W/m² -
1788376932 35° C 48% 1020.3 hPa 0 mm - 167 W/m² -
1788376627 35° C 47% 1020.6 hPa 0 mm - 343 W/m² -
1788376321 35° C 47% 1020.6 hPa 0 mm - 164 W/m² -
1788376017 35.56° C 47% 1020.5 hPa 0 mm - 174 W/m² -
1788375712 36.11° C 46% 1020.5 hPa 0 mm - 186 W/m² -
1788375407 35.56° C 45% 1020.4 hPa 0 mm - 725 W/m² -

* Rain latest hour (hover to see other rain measurements)
** Current wind speed in m/s (hover to see current wind gust speed)